QPF
0.05 0.05 0.04 0.04 0.03 0.03 0.02 0.01 0.01 0.01 0.00 0.01 0.00 0.00 0.00 0.00 0.01 0.02 0.03 0.03 0.02 0.02 0.03 0.03 0.03 0.03 0.04 0.04 0.04 0.05 0.08 0.08 0.06 0.04 0.03 0.03 0.02 0.01 0.01 0.02 0.02 0.01 0.01
0.05 0.06 0.06 0.06 0.05 0.04 0.03 0.02 0.01 0.01 0.01 0.01 0.01 0.00 0.00 0.01 0.01 0.01 0.03 0.03 0.02 0.02 0.03 0.02 0.02 0.03 0.04 0.04 0.04 0.05 0.06 0.07 0.06 0.06 0.04 0.04 0.02 0.02 0.02 0.02 0.01 0.01 0.00
0.03 0.04 0.05 0.05 0.05 0.04 0.04 0.03 0.02 0.02 0.02 0.02 0.02 0.01 0.01 0.01 0.01 0.02 0.03 0.03 0.02 0.02 0.02 0.02 0.02 0.02 0.02 0.02 0.03 0.03 0.04 0.05 0.05 0.05 0.04 0.04 0.02 0.02 0.02 0.03 0.01 0.01 0.00
0.03 0.03 0.03 0.04 0.04 0.04 0.03 0.03 0.03 0.02 0.02 0.02 0.02 0.02 0.02 0.01 0.02 0.02 0.02 0.01 0.02 0.02 0.01 0.01 0.01 0.01 0.01 0.02 0.02 0.02 0.03 0.05 0.04 0.04 0.03 0.02 0.02 0.03 0.03 0.02 0.02 0.01 0.00
0.03 0.02 0.02 0.02 0.02 0.02 0.02 0.02 0.02 0.01 0.01 0.01 0.01 0.01 0.02 0.02 0.02 0.01 0.01 0.01 0.01 0.01 0.01 0.01 0.01 0.01 0.02 0.02 0.02 0.01 0.02 0.04 0.05 0.04 0.04 0.02 0.01 0.02 0.02 0.02 0.02 0.01 0.00
0.04 0.02 0.02 0.02 0.02 0.02 0.02 0.02 0.01 0.01 0.01 0.01 0.01 0.01 0.01 0.02 0.02 0.01 0.01 0.01 0.00 0.00 0.01 0.01 0.01 0.01 0.01 0.01 0.01 0.01 0.01 0.02 0.05 0.06 0.05 0.03 0.01 0.01 0.02 0.03 0.02 0.01 0.01
0.04 0.04 0.03 0.02 0.03 0.03 0.03 0.03 0.02 0.01 0.01 0.01 0.01 0.01 0.01 0.01 0.01 0.01 0.00 0.00 0.00 0.00 0.00 0.01 0.01 0.01 0.01 0.00 0.00 0.00 0.00 0.01 0.04 0.06 0.05 0.05 0.02 0.01 0.03 0.04 0.02 0.01 0.01
0.04 0.05 0.05 0.05 0.05 0.05 0.05 0.05 0.04 0.02 0.02 0.01 0.01 0.01 0.01 0.01 0.01 0.01 0.01 0.00 0.00 0.00 0.00 0.00 0.01 0.01 0.01 0.00 0.00 0.00 0.01 0.01 0.02 0.03 0.04 0.05 0.03 0.02 0.02 0.02 0.02 0.02 0.01
0.03 0.04 0.05 0.06 0.07 0.07 0.07 0.08 0.05 0.03 0.02 0.02 0.01 0.01 0.01 0.00 0.00 0.01 0.01 0.01 0.00 0.00 0.00 0.00 0.01 0.01 0.01 0.01 0.00 0.00 0.01 0.01 0.01 0.02 0.04 0.04 0.03 0.01 0.01 0.01 0.02 0.02 0.02
0.02 0.03 0.04 0.05 0.06 0.06 0.08 0.09 0.07 0.04 0.03 0.01 0.01 0.01 0.01 0.01 0.00 0.00 0.01 0.02 0.01 0.01 0.01 0.01 0.01 0.01 0.01 0.01 0.01 0.01 0.01 0.01 0.01 0.02 0.02 0.02 0.02 0.01 0.01 0.01 0.01 0.01 0.02
0.02 0.03 0.03 0.05 0.06 0.06 0.06 0.07 0.07 0.05 0.02 0.01 0.01 0.00 0.00 0.00 0.00 0.00 0.01 0.01 0.02 0.02 0.01 0.01 0.01 0.01 0.01 0.01 0.02 0.02 0.02 0.02 0.01 0.01 0.01 0.00 0.01 0.01 0.01 0.01 0.01 0.01 0.01
0.02 0.02 0.02 0.03 0.04 0.04 0.04 0.04 0.04 0.04 0.02 0.01 0.01 0.01 0.00 0.00 0.00 0.00 0.00 0.01 0.01 0.02 0.02 0.01 0.01 0.02 0.02 0.02 0.03 0.04 0.03 0.03 0.03 0.02 0.01 0.01 0.01 0.01 0.02 0.01 0.01 0.01 0.01
0.02 0.02 0.02 0.03 0.03 0.03 0.03 0.03 0.02 0.02 0.03 0.02 0.01 0.01 0.00 0.00 0.00 0.00 0.00 0.00 0.01 0.01 0.01 0.02 0.01 0.01 0.02 0.02 0.02 0.03 0.02 0.03 0.03 0.03 0.01 0.01 0.01 0.02 0.02 0.02 0.01 0.01 0.01
0.02 0.02 0.01 0.01 0.02 0.02 0.02 0.02 0.02 0.02 0.02 0.02 0.01 0.01 0.00 0.00 0.00 0.00 0.00 0.00 0.01 0.01 0.01 0.01 0.01 0.01 0.01 0.01 0.02 0.02 0.03 0.03 0.04 0.03 0.02 0.02 0.02 0.03 0.03 0.02 0.02 0.02 0.01
0.02 0.01 0.01 0.02 0.01 0.01 0.01 0.02 0.02 0.03 0.03 0.02 0.01 0.01 0.00 0.00 0.00 0.00 0.00 0.00 0.01 0.01 0.01 0.01 0.00 0.00 0.00 0.01 0.01 0.02 0.02 0.02 0.02 0.02 0.02 0.02 0.03 0.03 0.03 0.03 0.03 0.03 0.03
0.03 0.02 0.02 0.01 0.01 0.01 0.00 0.01 0.02 0.02 0.03 0.02 0.01 0.01 0.01 0.01 0.00 0.01 0.01 0.01 0.01 0.01 0.01 0.01 0.01 0.01 0.01 0.01 0.01 0.01 0.02 0.02 0.01 0.02 0.03 0.02 0.02 0.03 0.02 0.03 0.04 0.03 0.03
0.04 0.04 0.02 0.01 0.01 0.00 0.00 0.00 0.01 0.01 0.02 0.02 0.01 0.01 0.01 0.01 0.01 0.01 0.01 0.02 0.02 0.02 0.01 0.01 0.01 0.01 0.01 0.01 0.01 0.02 0.02 0.01 0.02 0.02 0.02 0.03 0.02 0.02 0.02 0.03 0.03 0.02 0.02
0.04 0.03 0.02 0.01 0.01 0.00 0.00 0.00 0.01 0.01 0.01 0.01 0.01 0.01 0.01 0.01 0.01 0.00 0.01 0.01 0.01 0.01 0.01 0.01 0.01 0.01 0.01 0.01 0.02 0.02 0.02 0.02 0.02 0.03 0.03 0.03 0.03 0.03 0.02 0.02 0.02 0.02 0.02
0.02 0.02 0.01 0.01 0.01 0.00 0.00 0.00 0.01 0.01 0.01 0.01 0.01 0.01 0.01 0.01 0.01 0.01 0.01 0.01 0.01 0.01 0.01 0.02 0.02 0.02 0.02 0.02 0.03 0.03 0.03 0.03 0.03 0.03 0.03 0.03 0.04 0.03 0.02 0.02 0.02 0.02 0.02
0.01 0.01 0.01 0.01 0.00 0.00 0.01 0.01 0.01 0.01 0.01 0.01 0.01 0.02 0.01 0.01 0.01 0.02 0.02 0.02 0.02 0.02 0.02 0.02 0.01 0.01 0.01 0.02 0.03 0.03 0.03 0.03 0.03 0.04 0.05 0.04 0.04 0.04 0.04 0.03 0.02 0.02 0.02
0.01 0.01 0.01 0.00 0.00 0.00 0.00 0.00 0.01 0.01 0.01 0.01 0.01 0.02 0.01 0.01 0.02 0.03 0.03 0.03 0.04 0.04 0.03 0.02 0.01 0.01 0.02 0.03 0.03 0.04 0.03 0.03 0.03 0.03 0.05 0.06 0.06 0.05 0.04 0.04 0.03 0.03 0.02
0.01 0.00 0.00 0.00 0.00 0.00 0.00 0.00 0.00 0.01 0.01 0.01 0.01 0.01 0.02 0.02 0.02 0.03 0.03 0.03 0.03 0.03 0.03 0.02 0.03 0.04 0.04 0.04 0.04 0.03 0.03 0.04 0.04 0.03 0.03 0.04 0.04 0.04 0.04 0.04 0.03 0.03 0.03
0.01 0.00 0.00 0.00 0.00 0.00 0.00 0.00 0.00 0.01 0.01 0.01 0.01 0.01 0.02 0.02 0.02 0.02 0.02 0.03 0.03 0.03 0.03 0.02 0.03 0.03 0.03 0.03 0.03 0.03 0.03 0.03 0.03 0.03 0.02 0.02 0.03 0.03 0.04 0.04 0.04 0.04 0.04
0.00 0.00 0.00 0.00 0.00 0.00 0.00 0.00 0.00 0.01 0.01 0.01 0.01 0.02 0.02 0.01 0.01 0.01 0.01 0.02 0.02 0.03 0.02 0.02 0.02 0.02 0.02 0.02 0.02 0.03 0.03 0.03 0.03 0.02 0.02 0.02 0.02 0.02 0.02 0.02 0.03 0.03 0.03
0.00 0.00 0.00 0.00 0.00 0.00 0.00 0.00 0.01 0.01 0.01 0.01 0.02 0.03 0.02 0.02 0.01 0.01 0.01 0.01 0.02 0.02 0.03 0.03 0.03 0.03 0.02 0.02 0.02 0.02 0.02 0.02 0.02 0.01 0.01 0.01 0.01 0.01 0.01 0.01 0.02 0.02 0.02
0.00 0.00 0.00 0.00 0.00 0.00 0.00 0.01 0.01 0.01 0.01 0.02 0.02 0.02 0.02 0.02 0.02 0.01 0.01 0.01 0.02 0.02 0.02 0.03 0.03 0.02 0.02 0.01 0.01 0.01 0.01 0.01 0.00 0.00 0.00 0.00 0.00 0.00 0.00 0.01 0.01 0.02 0.02
MSLP
1018.12 1018.16 1018.22 1018.27 1018.28 1018.26 1018.19 1018.09 1017.97 1017.84 1017.71 1017.57 1017.42 1017.27 1017.09 1016.88 1016.66 1016.44 1016.22 1016.03 1015.87 1015.75 1015.65 1015.57 1015.46 1015.32 1015.11 1014.83 1014.48 1014.07 1013.62 1013.16 1012.71 1012.29 1011.92 1011.61 1011.36 1011.17 1011.04 1010.97 1010.97 1011.02 1011.14
1018.10 1018.09 1018.10 1018.10 1018.09 1018.06 1017.99 1017.91 1017.80 1017.68 1017.54 1017.39 1017.22 1017.02 1016.79 1016.54 1016.28 1016.01 1015.77 1015.56 1015.39 1015.26 1015.16 1015.07 1014.96 1014.82 1014.63 1014.38 1014.07 1013.71 1013.33 1012.94 1012.55 1012.18 1011.84 1011.54 1011.28 1011.05 1010.87 1010.75 1010.68 1010.69 1010.76
1017.99 1017.94 1017.91 1017.89 1017.85 1017.81 1017.75 1017.68 1017.58 1017.47 1017.33 1017.17 1016.96 1016.73 1016.46 1016.17 1015.87 1015.58 1015.31 1015.09 1014.92 1014.78 1014.68 1014.58 1014.48 1014.34 1014.17 1013.94 1013.67 1013.36 1013.04 1012.71 1012.38 1012.07 1011.77 1011.49 1011.22 1010.97 1010.75 1010.57 1010.44 1010.39 1010.41
1017.79 1017.73 1017.68 1017.64 1017.60 1017.55 1017.50 1017.43 1017.35 1017.24 1017.09 1016.91 1016.68 1016.41 1016.10 1015.77 1015.44 1015.13 1014.86 1014.63 1014.46 1014.32 1014.22 1014.13 1014.02 1013.89 1013.72 1013.50 1013.26 1012.99 1012.71 1012.43 1012.16 1011.90 1011.65 1011.39 1011.13 1010.88 1010.63 1010.41 1010.23 1010.12 1010.09
1017.53 1017.48 1017.43 1017.39 1017.34 1017.30 1017.25 1017.18 1017.10 1016.99 1016.83 1016.62 1016.36 1016.06 1015.71 1015.35 1015.00 1014.67 1014.39 1014.17 1014.00 1013.88 1013.79 1013.70 1013.59 1013.45 1013.27 1013.06 1012.81 1012.56 1012.30 1012.06 1011.83 1011.62 1011.40 1011.18 1010.95 1010.70 1010.45 1010.20 1009.99 1009.84 1009.76
1017.25 1017.22 1017.19 1017.15 1017.11 1017.06 1017.01 1016.95 1016.86 1016.73 1016.55 1016.31 1016.02 1015.67 1015.29 1014.90 1014.52 1014.19 1013.91 1013.70 1013.55 1013.44 1013.35 1013.27 1013.15 1013.00 1012.80 1012.56 1012.30 1012.04 1011.78 1011.55 1011.34 1011.16 1010.98 1010.80 1010.60 1010.38 1010.15 1009.91 1009.69 1009.51 1009.40
1017.00 1016.99 1016.97 1016.93 1016.90 1016.85 1016.79 1016.72 1016.61 1016.46 1016.25 1015.97 1015.63 1015.24 1014.82 1014.41 1014.02 1013.68 1013.41 1013.21 1013.08 1012.99 1012.91 1012.82 1012.70 1012.52 1012.29 1012.01 1011.71 1011.41 1011.13 1010.88 1010.68 1010.51 1010.36 1010.22 1010.06 1009.89 1009.69 1009.47 1009.27 1009.09 1008.97
1016.79 1016.80 1016.78 1016.75 1016.71 1016.66 1016.59 1016.49 1016.36 1016.17 1015.92 1015.59 1015.21 1014.78 1014.32 1013.88 1013.48 1013.14 1012.88 1012.70 1012.59 1012.52 1012.45 1012.36 1012.21 1012.00 1011.73 1011.40 1011.04 1010.69 1010.36 1010.08 1009.86 1009.68 1009.55 1009.45 1009.34 1009.21 1009.06 1008.90 1008.72 1008.57 1008.46
1016.63 1016.64 1016.63 1016.59 1016.54 1016.47 1016.38 1016.25 1016.08 1015.85 1015.55 1015.18 1014.75 1014.27 1013.79 1013.32 1012.91 1012.58 1012.33 1012.18 1012.08 1012.03 1011.97 1011.87 1011.71 1011.46 1011.14 1010.75 1010.33 1009.91 1009.52 1009.19 1008.93 1008.75 1008.63 1008.54 1008.48 1008.40 1008.31 1008.20 1008.07 1007.96 1007.88
1016.52 1016.52 1016.49 1016.44 1016.36 1016.27 1016.15 1015.99 1015.78 1015.51 1015.16 1014.74 1014.26 1013.75 1013.24 1012.76 1012.34 1012.02 1011.79 1011.65 1011.57 1011.53 1011.47 1011.37 1011.18 1010.90 1010.53 1010.09 1009.60 1009.12 1008.67 1008.29 1008.00 1007.79 1007.66 1007.60 1007.56 1007.53 1007.49 1007.43 1007.36 1007.29 1007.24
1016.42 1016.41 1016.36 1016.28 1016.18 1016.05 1015.90 1015.70 1015.45 1015.13 1014.74 1014.28 1013.76 1013.22 1012.69 1012.20 1011.79 1011.47 1011.25 1011.13 1011.07 1011.03 1010.97 1010.86 1010.65 1010.35 1009.94 1009.44 1008.91 1008.37 1007.87 1007.44 1007.11 1006.88 1006.75 1006.69 1006.67 1006.67 1006.68 1006.67 1006.64 1006.61 1006.60
1016.33 1016.29 1016.21 1016.10 1015.97 1015.82 1015.63 1015.39 1015.10 1014.74 1014.31 1013.81 1013.27 1012.71 1012.16 1011.67 1011.26 1010.95 1010.74 1010.62 1010.57 1010.53 1010.47 1010.34 1010.12 1009.79 1009.35 1008.82 1008.25 1007.68 1007.15 1006.69 1006.34 1006.09 1005.94 1005.88 1005.87 1005.89 1005.92 1005.95 1005.96 1005.96 1005.97
1016.21 1016.14 1016.04 1015.90 1015.74 1015.55 1015.33 1015.06 1014.73 1014.33 1013.87 1013.35 1012.78 1012.21 1011.66 1011.17 1010.76 1010.45 1010.25 1010.13 1010.07 1010.02 1009.94 1009.80 1009.55 1009.20 1008.75 1008.21 1007.63 1007.05 1006.51 1006.04 1005.68 1005.42 1005.27 1005.20 1005.20 1005.23 1005.27 1005.31 1005.34 1005.37 1005.40
1016.06 1015.97 1015.84 1015.68 1015.50 1015.28 1015.02 1014.72 1014.35 1013.92 1013.43 1012.89 1012.32 1011.74 1011.19 1010.70 1010.29 1009.98 1009.77 1009.64 1009.55 1009.48 1009.37 1009.20 1008.94 1008.58 1008.12 1007.59 1007.02 1006.45 1005.92 1005.47 1005.12 1004.87 1004.72 1004.66 1004.66 1004.69 1004.73 1004.78 1004.82 1004.85 1004.89
1015.87 1015.76 1015.62 1015.44 1015.23 1014.99 1014.70 1014.36 1013.97 1013.51 1013.00 1012.44 1011.86 1011.28 1010.73 1010.24 1009.83 1009.52 1009.28 1009.13 1009.01 1008.89 1008.75 1008.55 1008.26 1007.89 1007.43 1006.91 1006.37 1005.84 1005.35 1004.94 1004.62 1004.39 1004.26 1004.21 1004.21 1004.25 1004.29 1004.33 1004.37 1004.40 1004.44
1015.63 1015.52 1015.37 1015.18 1014.96 1014.69 1014.37 1014.00 1013.57 1013.09 1012.55 1011.98 1011.39 1010.81 1010.27 1009.78 1009.37 1009.04 1008.78 1008.58 1008.42 1008.25 1008.06 1007.82 1007.50 1007.12 1006.67 1006.18 1005.68 1005.20 1004.76 1004.40 1004.13 1003.95 1003.85 1003.82 1003.83 1003.86 1003.91 1003.95 1003.98 1004.01 1004.04
1015.35 1015.24 1015.09 1014.90 1014.66 1014.36 1014.01 1013.61 1013.15 1012.63 1012.07 1011.49 1010.89 1010.32 1009.78 1009.29 1008.88 1008.53 1008.25 1008.01 1007.80 1007.58 1007.34 1007.05 1006.71 1006.31 1005.87 1005.40 1004.95 1004.52 1004.15 1003.85 1003.64 1003.50 1003.44 1003.43 1003.46 1003.50 1003.54 1003.58 1003.61 1003.63 1003.66
1015.04 1014.93 1014.78 1014.58 1014.32 1014.00 1013.61 1013.17 1012.67 1012.13 1011.54 1010.95 1010.35 1009.78 1009.24 1008.77 1008.35 1008.00 1007.70 1007.43 1007.17 1006.91 1006.62 1006.29 1005.92 1005.51 1005.08 1004.64 1004.23 1003.85 1003.54 1003.30 1003.14 1003.05 1003.02 1003.03 1003.07 1003.12 1003.16 1003.20 1003.23 1003.25 1003.27
1014.67 1014.58 1014.42 1014.20 1013.92 1013.57 1013.15 1012.66 1012.13 1011.55 1010.95 1010.34 1009.74 1009.18 1008.66 1008.21 1007.80 1007.46 1007.15 1006.86 1006.58 1006.29 1005.97 1005.61 1005.22 1004.80 1004.38 1003.96 1003.58 1003.25 1002.98 1002.78 1002.66 1002.60 1002.59 1002.62 1002.66 1002.71 1002.75 1002.78 1002.80 1002.82 1002.84
1014.26 1014.16 1013.99 1013.76 1013.45 1013.06 1012.60 1012.08 1011.50 1010.89 1010.27 1009.66 1009.07 1008.53 1008.05 1007.62 1007.25 1006.93 1006.64 1006.36 1006.08 1005.78 1005.44 1005.08 1004.68 1004.27 1003.85 1003.45 1003.09 1002.78 1002.54 1002.36 1002.25 1002.20 1002.19 1002.21 1002.24 1002.28 1002.30 1002.32 1002.33 1002.34 1002.35
1013.78 1013.67 1013.49 1013.24 1012.89 1012.47 1011.97 1011.41 1010.80 1010.17 1009.54 1008.93 1008.36 1007.85 1007.41 1007.03 1006.71 1006.44 1006.19 1005.95 1005.70 1005.42 1005.10 1004.75 1004.37 1003.97 1003.57 1003.18 1002.83 1002.53 1002.29 1002.10 1001.98 1001.91 1001.87 1001.85 1001.85 1001.85 1001.85 1001.84 1001.83 1001.82 1001.81
1013.25 1013.12 1012.92 1012.64 1012.27 1011.81 1011.28 1010.69 1010.05 1009.41 1008.77 1008.18 1007.64 1007.18 1006.79 1006.47 1006.22 1006.02 1005.84 1005.66 1005.47 1005.24 1004.97 1004.66 1004.31 1003.94 1003.55 1003.18 1002.83 1002.52 1002.26 1002.05 1001.89 1001.76 1001.67 1001.60 1001.54 1001.48 1001.43 1001.38 1001.33 1001.29 1001.27
1012.67 1012.52 1012.31 1012.01 1011.61 1011.13 1010.57 1009.96 1009.31 1008.66 1008.04 1007.46 1006.96 1006.55 1006.22 1005.98 1005.81 1005.68 1005.59 1005.49 1005.38 1005.23 1005.03 1004.78 1004.49 1004.16 1003.81 1003.45 1003.10 1002.78 1002.49 1002.23 1002.01 1001.81 1001.65 1001.49 1001.36 1001.23 1001.11 1001.01 1000.92 1000.84 1000.79
1012.07 1011.92 1011.69 1011.38 1010.98 1010.48 1009.92 1009.30 1008.65 1008.01 1007.40 1006.85 1006.39 1006.02 1005.75 1005.58 1005.48 1005.45 1005.44 1005.44 1005.41 1005.35 1005.24 1005.07 1004.85 1004.58 1004.27 1003.94 1003.60 1003.26 1002.94 1002.63 1002.34 1002.07 1001.82 1001.58 1001.36 1001.16 1000.97 1000.81 1000.67 1000.55 1000.47
1011.51 1011.36 1011.14 1010.84 1010.44 1009.95 1009.39 1008.78 1008.14 1007.51 1006.92 1006.40 1005.97 1005.64 1005.42 1005.30 1005.27 1005.31 1005.38 1005.46 1005.53 1005.56 1005.54 1005.46 1005.32 1005.12 1004.86 1004.57 1004.25 1003.91 1003.56 1003.21 1002.87 1002.53 1002.20 1001.88 1001.59 1001.31 1001.06 1000.84 1000.65 1000.51 1000.40
1011.03 1010.91 1010.72 1010.44 1010.07 1009.60 1009.06 1008.47 1007.85 1007.24 1006.67 1006.17 1005.76 1005.45 1005.26 1005.18 1005.19 1005.28 1005.41 1005.56 1005.70 1005.81 1005.88 1005.88 1005.82 1005.69 1005.51 1005.26 1004.97 1004.65 1004.29 1003.92 1003.54 1003.15 1002.77 1002.40 1002.04 1001.71 1001.41 1001.15 1000.93 1000.76 1000.64
Thickness
5653 5650 5646 5641 5637 5633 5628 5624 5620 5617 5614 5610 5607 5604 5601 5598 5595 5592 5590 5588 5586 5585 5584 5583 5583 5583 5583 5583 5584 5584 5584 5584 5584 5586 5589 5592 5594 5596 5599 5601 5603 5605 5607
5649 5645 5641 5637 5633 5628 5624 5621 5617 5613 5610 5607 5604 5601 5598 5595 5592 5589 5586 5584 5582 5581 5580 5580 5579 5580 5579 5579 5579 5579 5579 5580 5580 5579 5582 5585 5588 5590 5592 5594 5597 5599 5602
5645 5640 5636 5632 5628 5624 5621 5618 5614 5610 5607 5604 5601 5597 5594 5591 5588 5586 5583 5581 5579 5578 5577 5576 5576 5575 5575 5575 5575 5575 5575 5576 5575 5574 5575 5578 5581 5584 5586 5589 5592 5594 5597
5641 5636 5631 5628 5625 5621 5618 5614 5611 5608 5604 5601 5598 5594 5591 5588 5585 5583 5580 5577 5575 5575 5574 5573 5573 5572 5572 5571 5571 5571 5570 5570 5569 5569 5570 5572 5574 5578 5580 5582 5584 5587 5591
5637 5632 5628 5625 5622 5619 5615 5611 5608 5604 5601 5598 5595 5591 5588 5585 5583 5580 5577 5575 5572 5571 5571 5570 5570 5570 5571 5570 5570 5568 5567 5566 5565 5565 5565 5566 5569 5572 5575 5577 5580 5581 5585
5634 5630 5627 5623 5619 5615 5612 5608 5605 5601 5598 5595 5592 5588 5585 5583 5581 5579 5576 5572 5570 5568 5567 5567 5567 5568 5568 5568 5568 5567 5566 5564 5562 5562 5562 5563 5566 5569 5571 5574 5574 5575 5578
5631 5628 5624 5621 5616 5613 5610 5605 5602 5598 5595 5591 5588 5585 5582 5581 5579 5577 5575 5571 5568 5566 5565 5564 5566 5566 5565 5564 5564 5565 5564 5563 5563 5561 5561 5563 5565 5567 5569 5570 5571 5572 5574
5628 5626 5622 5618 5615 5611 5607 5603 5599 5596 5592 5588 5585 5583 5581 5579 5578 5576 5573 5570 5567 5565 5564 5563 5562 5563 5563 5562 5561 5561 5561 5561 5562 5562 5562 5564 5566 5567 5568 5569 5569 5570 5572
5627 5623 5620 5617 5612 5608 5604 5600 5597 5593 5590 5587 5584 5582 5579 5578 5577 5574 5572 5568 5566 5565 5564 5563 5562 5561 5562 5560 5559 5558 5559 5560 5562 5562 5563 5564 5565 5566 5566 5565 5565 5565 5567
5625 5622 5619 5615 5611 5607 5603 5599 5596 5592 5589 5586 5584 5582 5579 5577 5577 5574 5572 5567 5564 5564 5564 5564 5563 5561 5561 5560 5558 5557 5557 5558 5559 5561 5562 5563 5564 5565 5566 5565 5565 5563 5563
5623 5620 5616 5613 5609 5605 5601 5598 5595 5591 5588 5585 5583 5581 5579 5578 5577 5575 5572 5567 5565 5564 5563 5563 5563 5562 5561 5560 5558 5557 5558 5558 5558 5558 5559 5561 5562 5563 5563 5564 5564 5563 5562
5621 5617 5614 5610 5607 5605 5600 5596 5593 5590 5586 5584 5581 5580 5580 5579 5578 5576 5573 5570 5567 5563 5563 5562 5562 5562 5562 5561 5560 5560 5559 5558 5556 5556 5557 5558 5559 5561 5563 5563 5564 5563 5564
5617 5614 5611 5608 5605 5602 5598 5595 5592 5589 5585 5583 5581 5579 5579 5579 5577 5576 5573 5571 5568 5564 5563 5563 5562 5562 5562 5562 5562 5561 5560 5558 5556 5555 5556 5557 5559 5560 5561 5561 5562 5562 5562
5615 5611 5608 5605 5602 5600 5597 5594 5591 5588 5586 5584 5581 5580 5579 5577 5576 5575 5573 5570 5568 5565 5563 5563 5562 5562 5561 5561 5561 5560 5559 5558 5556 5555 5556 5557 5557 5557 5557 5558 5557 5558 5557
5613 5609 5606 5603 5601 5598 5595 5593 5592 5591 5588 5585 5583 5581 5578 5577 5578 5577 5572 5570 5566 5564 5561 5560 5560 5560 5559 5559 5559 5559 5558 5557 5555 5554 5554 5554 5554 5554 5554 5554 5554 5553 5552
5611 5608 5605 5602 5599 5597 5594 5593 5594 5592 5592 5589 5586 5583 5582 5580 5579 5576 5573 5570 5566 5563 5559 5557 5558 5558 5557 5557 5557 5557 5557 5556 5555 5553 5552 5551 5551 5551 5551 5551 5551 5550 5550
5611 5608 5605 5602 5599 5597 5595 5592 5591 5592 5593 5591 5589 5586 5582 5580 5578 5575 5571 5568 5565 5561 5557 5556 5556 5556 5556 5556 5555 5555 5554 5554 5552 5550 5549 5549 5548 5548 5548 5548 5548 5547 5547
5612 5609 5606 5603 5600 5598 5596 5594 5592 5590 5589 5588 5589 5587 5584 5580 5577 5573 5569 5565 5562 5560 5556 5556 5556 5556 5555 5554 5554 5553 5552 5551 5549 5547 5546 5545 5544 5544 5544 5544 5544 5543 5544
5612 5609 5606 5604 5602 5599 5597 5595 5593 5591 5589 5587 5586 5585 5584 5580 5576 5572 5567 5562 5560 5559 5558 5556 5555 5554 5554 5553 5551 5550 5549 5547 5545 5544 5542 5541 5540 5540 5539 5540 5539 5540 5539
5613 5611 5608 5605 5602 5600 5598 5596 5593 5591 5589 5586 5585 5583 5580 5576 5572 5570 5565 5561 5558 5557 5556 5554 5553 5552 5550 5549 5548 5546 5545 5543 5541 5540 5538 5537 5536 5535 5534 5534 5534 5534 5534
5614 5611 5610 5606 5603 5601 5599 5597 5594 5591 5589 5587 5585 5583 5579 5574 5570 5568 5564 5561 5558 5556 5554 5552 5550 5548 5547 5545 5543 5541 5539 5537 5536 5535 5534 5533 5532 5530 5530 5529 5529 5529 5529
5615 5611 5609 5607 5605 5603 5600 5598 5595 5592 5590 5588 5585 5582 5578 5573 5569 5565 5562 5560 5558 5555 5553 5550 5548 5545 5543 5540 5537 5535 5533 5531 5530 5529 5528 5527 5527 5526 5525 5524 5523 5522 5523
5615 5612 5610 5608 5606 5604 5602 5599 5596 5593 5590 5587 5583 5579 5575 5570 5567 5564 5561 5558 5556 5553 5551 5547 5543 5541 5538 5536 5533 5530 5527 5525 5524 5522 5521 5520 5519 5519 5518 5516 5516 5515 5515
5616 5613 5611 5608 5606 5604 5601 5599 5597 5594 5590 5586 5582 5577 5573 5569 5565 5562 5558 5555 5552 5549 5546 5542 5538 5535 5532 5530 5527 5524 5522 5520 5518 5516 5515 5513 5512 5511 5510 5509 5508 5508 5508
5616 5613 5611 5608 5606 5604 5601 5599 5596 5592 5588 5584 5580 5575 5571 5567 5563 5559 5555 5551 5548 5543 5539 5535 5532 5528 5525 5523 5520 5518 5515 5513 5511 5509 5508 5506 5504 5503 5502 5501 5500 5500 5499
5616 5614 5611 5609 5606 5603 5600 5597 5593 5589 5585 5581 5577 5572 5568 5563 5559 5555 5551 5546 5541 5536 5532 5528 5525 5521 5518 5515 5512 5510 5507 5505 5503 5501 5498 5497 5495 5494 5493 5492 5492 5492 5491